Tracking 35275 objects as of 9-Sep-2026
HD Live streaming from Space Station
objects crossing your sky now

STARLINK-31812

Track STARLINK-31812 now!
10-day predictions
STARLINK-31812 is classified as:


NORAD ID: 59800
Int'l Code: 2024-093U
Launch date: May 18, 2024
Source: United States (US)
Launch site: AIR FORCE EASTERN TEST RANGE (AFETR)
Your satellite tracking list
Your tracking list is empty




NASA's NSSDC Master Catalog

Two Line Element Set (TLE):
1 59800U 24093U   26252.02843238 -.00000248  00000-0  52160-6 0  9992
2 59800  42.9988 253.5833 0001116 283.1397  76.9330 15.27575290130808
Source of the keplerian elements: AFSPC